Regional Weather Roundup
Issued by NWS

Home | Current Version | Previous Version | Text Only | Print | Product List | Glossary Off
Versions: 1 2 3 4 5 6 7 8 9 10 11 12 13 14 15 16 17 18 19 20 21 22 23 24 25 26 27 28 29 30 31 32 33 34 35 36 37 38 39 40 41 42 43 44 45 46 47 48 49 50

370
ASUS43 KLOT 141008
RWRIL

ILLINOIS REGIONAL WEATHER ROUNDUP
NATIONAL WEATHER SERVICE CHICAGO/ROMEOVILLE IL
400 AM CST SUN FEB 14 2016

NOTE: "FAIR" INDICATES FEW OR NO CLOUDS BELOW 12,000 FEET WITH NO
SIGNIFICANT WEATHER AND/OR OBSTRUCTIONS TO VISIBILITY.

* THESE STATIONS ARE NOT UNDER NWS QUALITY CONTROL. THEY ALSO MAY NOT
  REPORT WEATHER SUCH AS PRECIPITATION OR FOG.

ILZ001-002-007-009-015-016-024-141100-
NORTHWEST ILLINOIS

CITY           SKY/WX    TMP DP  RH WIND       PRES   REMARKS
MOLINE         CLOUDY    18   5  57 SE15      30.30F WCI   4
STERLING*      CLOUDY    16   7  67 SE13      30.31F WCI   2
SAVANNA*       CLOUDY    16   2  55 SE10      30.32F WCI   3
$$

ILZ003-004-008-010-011-017-018-141100-
NORTH CENTRAL ILLINOIS

CITY           SKY/WX    TMP DP  RH WIND       PRES   REMARKS
ROCKFORD       CLOUDY    14   2  58 SE10      30.38F WCI   1
FREEPORT*      CLOUDY    13   2  61 SE9       30.36S WCI   1
ROCHELLE*      CLOUDY    15   3  59 SE12      30.36F WCI   1
DE KALB*       CLOUDY    14   3  61 SE8       30.37F WCI   3
$$

ILZ005-006-012>014-019>023-141100-
NORTHEAST ILLINOIS

CITY           SKY/WX    TMP DP  RH WIND       PRES   REMARKS
CHICAGO-OHARE  CLOUDY    12   2  64 S9        30.40F WCI   0
CHICAGO-MIDWAY MOCLDY    14   0  53 S9        30.41F WCI   2
AURORA         CLOUDY    15   3  59 SE10      30.38F WCI   2
LANSING*       CLOUDY    13   3  64 SE7       30.43F WCI   2
JOLIET*        PTCLDY    15   6  66 SE7       30.41F WCI   6
WAUKEGAN       PTCLDY     3  -1  83 CALM      30.39S
DUPAGE AIRPORT CLOUDY    13   0  56 S8        30.38F WCI   2
KANKAKEE*      CLOUDY    15   4  61 SE9       30.42F WCI   3
WHEELING       PTCLDY     9   1  70 SE3       30.41F
MORRIS*        CLOUDY    15   4  60 SE8       30.37F WCI   5
ROMEOVILLE*    PTCLDY    13   4  65 SE9       30.39F WCI   1
NORTHERLY ISL    N/A     13  -1  54 S12         N/A  WCI  -1
$$

LMZ740>746-141100-
SOUTHERN LAKE MICHIGAN

STATION/POSITION SKY/WX   TEMP    WIND        PRES    VSBY  WAVE
                          AIR SEA DIR/SP/G                  HT/PER
                          (F)     (DEG/KT/KT) (MB)    (MI)  (FT/S)
HARRISON CRIB              16     180/ 14/ 16   N/A
BURNHAM HARBOR             13     170/  5/ 11   N/A
CALUMET HARBOR             12     170/  6/  8 1029.7F
BURNS HARBOR               11     150/  9/ 13 1031.2F
MICHIGAN CITY               9     130/  7/  8   N/A
$$

ILZ025>027-034>036-040-047-049-050-058-095>099-141100-
WEST-CENTRAL ILLINOIS

CITY           SKY/WX    TMP DP  RH WIND       PRES   REMARKS
QUINCY         CLOUDY    19  12  74 SE16      30.25F WCI   4
GALESBURG*     FLURRIES  16  13  89 E9G16     30.30F WCI   4
MACOMB*        FLURRIES  17  14  90 SE15      30.32F WCI   2
JACKSONVILLE*  CLOUDY    21  13  71 E16       30.30F WCI   7
PITTSFIELD*    CLOUDY    21  13  71 SE16      30.28F WCI   7
$$

ILZ028>032-037-038-041>044-048-051>054-059>061-141100-
CENTRAL ILLINOIS

CITY           SKY/WX    TMP DP  RH WIND       PRES   REMARKS
PONTIAC        CLOUDY    17  10  73 E12       30.40F WCI   4
BLOOMINGTON    LGT SNOW  16   7  67 SE13      30.36F WCI   2
DECATUR        LGT SNOW  15  11  83 SE13      30.38F FOG     WCI   1
PEORIA         LGT SNOW  16  12  84 SE8       30.36F FOG     WCI   5
LACON*         CLOUDY    18   4  55 SE7       30.36F WCI   9
LINCOLN*       LGT SNOW  16  13  89 SE12      30.37F WCI   3
SPRINGFIELD    LGT SNOW  18  14  84 E14       30.34F FOG     WCI   4
TAYLORVILLE    FLURRIES  19  10  68 E12       30.35F WCI   7
$$

ILZ033-039-045-046-055>057-062-063-141100-
EAST-CENTRAL ILLINOIS

CITY           SKY/WX    TMP DP  RH WIND       PRES   REMARKS
CHAMPAIGN      LGT SNOW  16   7  67 SE12      30.39F WCI   3
RANTOUL*       CLOUDY    19   5  55 SE10      30.40S WCI   7
MATTOON        LGT SNOW  15  10  80 E8        30.38F WCI   4
PARIS*         CLOUDY    18   5  57 E7        30.42F WCI   8
$$

ILZ079-100>102-141100-
SOUTHWEST ILLINOIS

CITY           SKY/WX    TMP DP  RH WIND       PRES   REMARKS
ALTON          CLOUDY    21   9  58 E13       30.32F WCI   9
BELLEVILLE     MOCLDY    23   7  52 E13G20    30.32F WCI  11
CAHOKIA*       CLOUDY    24   6  46 SE13      30.31F WCI  12
SPARTA*        CLOUDY    22   9  57 SE14      30.35F WCI   9
$$

ILZ064>066-069>071-074>076-080>082-084>086-088>090-092>094-141100-
SOUTH-CENTRAL ILLINOIS

CITY           SKY/WX    TMP DP  RH WIND       PRES   REMARKS
CARBONDALE     CLOUDY    23   8  52 E9        30.37F WCI  13
CAIRO*         CLOUDY    25  15  65 NE9       30.35F WCI  15
EFFINGHAM*     CLOUDY    19  10  67 E7        30.41F WCI  10
MARION         CLOUDY    25  10  54 NE6       30.40S WCI  18
MT. VERNON     CLOUDY    21   5  49 E5        30.39F WCI  15
CENTRALIA*     CLOUDY    22   9  57 SE8       30.37F WCI  13
SALEM*         CLOUDY    22   6  49 SE7       30.38F WCI  14
METROPOLIS*    FLURRIES  25  11  56 NE3       30.38R
$$

ILZ067-068-072-073-078-083-087-091-141100-
SOUTHEAST ILLINOIS

CITY           SKY/WX    TMP DP  RH WIND       PRES   REMARKS
LAWRENCEVILLE  LGT SNOW  19  10  68 E10       30.42S WCI   7
FLORA*         CLOUDY    22   6  51 SE8       30.41S WCI  13
FAIRFIELD*     CLOUDY    22   7  52 E3        30.41R
HARRISBURG*    LGT SNOW  21  17  83 E7        30.42R WCI  13
ROBINSON*      CLOUDY    18   7  62 E8        30.43F WCI   8
CARMI*         CLOUDY    22   9  55 E6        30.41R WCI  15
$$

ABBREVIATIONS USED IN REMARKS
   TC - TEMPERATURE IN CELSIUS
  WCI - WIND CHILL INDEX
   HX - HEAT INDEX
  VSB - VISIBILITY
$$





USA.gov is the U.S. government's official web portal to all federal, state and local government web resources and services.